This is the latest recevied weather packets stored in our database for station/object WP3OF-2. If no packets are shown the sender has not sent any weather packets the latest 10 day(s).
| Time | Temp. | Humidity | Pressure | Rain* | Wind** | Luminosity | Snow |
|---|---|---|---|---|---|---|---|
| 1778081557 | 23.33° C | 83% | 1029 hPa | 0 mm | - | 832 W/m² | - |
| 1778081253 | 22.78° C | 83% | 1029 hPa | 0 mm | - | 916 W/m² | - |
| 1778080951 | 22.78° C | 84% | 1029 hPa | 0 mm | - | 865 W/m² | - |
| 1778080650 | 22.78° C | 86% | 1029 hPa | 0 mm | - | 199 W/m² | - |
| 1778080346 | 22.78° C | 86% | 1029 hPa | 0 mm | - | 854 W/m² | - |
| 1778080042 | 22.78° C | 85% | 1028.5 hPa | 0 mm | - | 234 W/m² | - |
| 1778079740 | 22.78° C | 86% | 1029 hPa | 0 mm | - | 327 W/m² | - |
| 1778079437 | 22.78° C | 85% | 1029 hPa | 0 mm | - | 886 W/m² | - |
| 1778079133 | 22.78° C | 86% | 1029 hPa | 0 mm | - | 819 W/m² | - |
| 1778078831 | 22.78° C | 88% | 1029 hPa | 0 mm | - | 893 W/m² | - |
| 1778078527 | 21.67° C | 87% | 1029 hPa | 0 mm | - | 186 W/m² | - |
| 1778078225 | 21.67° C | 88% | 1029 hPa | 0 mm | - | 229 W/m² | - |
| 1778077923 | 21.67° C | 86% | 1028.5 hPa | 0 mm | - | 243 W/m² | - |
| 1778077621 | 22.78° C | 84% | 1029 hPa | 0 mm | - | 330 W/m² | - |
| 1778077319 | 22.22° C | 84% | 1028.5 hPa | 0 mm | - | 828 W/m² | - |
| 1778077016 | 22.22° C | 86% | 1029 hPa | 0 mm | - | 907 W/m² | - |
| 1778076714 | 22.22° C | 86% | 1029 hPa | 0 mm | - | 354 W/m² | - |
| 1778076411 | 22.22° C | 84% | 1029 hPa | 0 mm | - | 932 W/m² | - |
| 1778076108 | 22.78° C | 83% | 1028.5 hPa | 0 mm | - | 929 W/m² | - |
| 1778075805 | 22.22° C | 86% | 1028.5 hPa | 0 mm | - | 974 W/m² | - |
| 1778075502 | 22.78° C | 86% | 1029 hPa | 0 mm | - | 1026 W/m² | - |
| 1778075198 | 22.22° C | 86% | 1028.5 hPa | 0 mm | - | 974 W/m² | - |
| 1778074894 | 22.22° C | 87% | 1029 hPa | 0 mm | - | 429 W/m² | - |
| 1778074592 | 22.78° C | 86% | 1028.5 hPa | 0 mm | - | 924 W/m² | - |
| 1778074289 | 22.22° C | 87% | 1028.5 hPa | 0 mm | - | 878 W/m² | - |
* Rain latest hour (hover to see other rain measurements)
** Current wind speed in m/s (hover to see current wind gust speed)